Simultaneous Nadir Overpasses (SNOs) Predictions

Prediction of SNOs between GOES-17 and TERRA Satellite Orbit:

Table of predicted SNOs for the next 14.0 days since TLE Epoch: 9/23/2023
Index Date Time (GOES-17) GOES-17 Lat,Lon TERRA Lat,Lon Distance(km) Time Diff (sec)
1 09/24/2023 17:01:19 0.00,-104.70 -0.02,-104.68 2.73 80
2 09/26/2023 16:44:50 -0.00,-104.70 -0.84,-100.70 454.30 80
3 09/27/2023 05:05:09 0.00,-104.69 -0.17,-105.64 107.70 80
4 09/29/2023 04:45:59 0.01,-104.69 0.62,-101.65 344.95 80
5 09/29/2023 17:06:08 -0.01,-104.70 0.36,-106.55 210.35 80
6 10/01/2023 16:52:18 -0.01,-104.70 -0.46,-102.57 242.78 80
7 10/02/2023 05:12:36 0.01,-104.70 -0.59,-107.50 318.45 80
8 10/04/2023 04:53:26 0.02,-104.70 0.27,-103.52 134.50 80
9 10/04/2023 17:13:34 -0.02,-104.70 0.77,-108.41 421.35 80
10 10/06/2023 16:59:43 -0.02,-104.71 -0.06,-104.42 32.12 80
